Dubrovnik, Croatia

10:07 AM CEST on May 24, 2018 (GMT +0200)
Cilipi

Weather History for LDDU - December, 2017

Change the Weather History Date:

Monday, December 25, 2017

  Actual Average (LYTV) Record (LYTV)
Temperature  
Mean Temperature 46 °F -  
Max Temperature 57 °F 52 °F 61 °F (2015)
Min Temperature 36 °F 36 °F 26 °F (2005)
Degree Days  
Heating Degree Days 18    
Moisture  
Dew Point 44 °F    
Average Humidity 86    
Maximum Humidity 100    
Minimum Humidity 67    
Precipitation  
Precipitation 0.00 in - - ()
Sea Level Pressure  
Sea Level Pressure 30.32 in    
Wind  
Wind Speed 5 mph ()    
Max Wind Speed 9 mph    
Max Gust Speed -    
Visibility 7.7 miles    
Events      
Averages and records for this station are not official NWS values.
T = Trace of Precipitation, MM = Missing Value Source: Averaged Metar Reports

Daily Weather History Graph

Daily Weather History Graph

Search for Another Location

Airport or City:

Astronomy

Dec. 25, 2017 Rise Set
Actual Time 7:15 AM CET 4:18 PM CET
Civil Twilight 6:43 AM CET 4:51 PM CET
Nautical Twilight 6:07 AM CET 5:26 PM CET
Astronomical Twilight 5:33 AM CET 6:00 PM CET
Moon 11:30 AM CET (12/25) 11:15 PM CET (12/25)
Length of Visible Light 10h 07m
Length of Day
9h 03m
Waxing Crescent, 41% of the Moon is Illuminated
Dec 25
Waxing Crescent
Dec 26
First Quarter
Jan 2
Full
Jan 8
Last Quarter
Jan 17
New

Hourly Weather History & Observations

Time (CET) Temp. Windchill Dew Point Humidity Pressure Visibility Wind Dir Wind Speed Gust Speed Precip Events Conditions
12:00 AM 46.4 °F 43.5 °F 39.2 °F 76% 30.33 in - East 5.8 mph - N/A   Clear
12:30 AM 42.8 °F 39.3 °F 35.6 °F 76% 30.33 in - ENE 5.8 mph - N/A   Clear
1:00 AM 42 °F - 37 °F 76% 30.36 in 19 mi Calm Calm - -  
1:00 AM 42.8 °F - 37.4 °F 81% 30.33 in - Calm Calm - N/A   Clear
1:30 AM 44.6 °F - 39.2 °F 81% 30.33 in - Calm Calm - N/A   Clear
2:00 AM 41.0 °F 39.0 °F 39.2 °F 93% 30.33 in - East 3.5 mph - N/A   Clear
2:30 AM 42.8 °F 39.3 °F 37.4 °F 81% 30.33 in - East 5.8 mph - N/A   Clear
3:00 AM 37.4 °F 32.1 °F 37.4 °F 100% 30.33 in - East 6.9 mph - N/A   Clear
3:30 AM 39.2 °F 35.9 °F 39.2 °F 100% 30.30 in - ESE 4.6 mph - N/A   Clear
4:00 AM 38 °F - 37 °F 95% 30.35 in 19 mi ENE 4.5 mph - -  
4:00 AM 39.2 °F 35.9 °F 39.2 °F 100% 30.33 in - East 4.6 mph - N/A   Clear
4:30 AM 41.0 °F 38.0 °F 37.4 °F 87% 30.33 in - East 4.6 mph - N/A   Clear
5:00 AM 41.0 °F 38.0 °F 37.4 °F 87% 30.33 in - East 4.6 mph - N/A   Clear
5:30 AM 37.4 °F 32.8 °F 37.4 °F 100% 30.33 in - East 5.8 mph - N/A   Clear
6:00 AM 37.4 °F 32.1 °F 37.4 °F 100% 30.33 in - East 6.9 mph - N/A   Clear
6:30 AM 41.0 °F 36.4 °F 39.2 °F 93% 30.33 in - East 6.9 mph - N/A   Clear
7:00 AM 40 °F - 39 °F 96% 30.36 in 19 mi East 6.7 mph - -  
7:00 AM 41.0 °F 35.8 °F 41.0 °F 100% 30.33 in - East 8.1 mph - N/A   Clear
7:30 AM 41.0 °F 36.4 °F 39.2 °F 93% 30.33 in - East 6.9 mph - N/A   Clear
8:00 AM 42.8 °F 38.0 °F 39.2 °F 87% 30.33 in - East 8.1 mph - N/A   Clear
8:30 AM 46.4 °F 42.9 °F 39.2 °F 76% 30.33 in - East 6.9 mph - N/A   Clear
9:00 AM 50.0 °F - 42.8 °F 76% 30.36 in - ESE 5.8 mph - N/A   Clear
9:30 AM 53.6 °F - 42.8 °F 67% 30.36 in - East 3.5 mph - N/A   Clear
10:00 AM 54 °F - 46 °F 68% 30.38 in 31 mi East 4.5 mph - -  
10:00 AM 53.6 °F - 46.4 °F 77% 30.36 in - East 5.8 mph - N/A   Clear
10:30 AM 55.4 °F - 46.4 °F 72% 30.36 in - ESE 5.8 mph - N/A   Clear
11:00 AM 55.4 °F - 44.6 °F 67% 30.36 in 6.2 mi ESE 5.8 mph - N/A   Partly Cloudy
11:30 AM 57.2 °F - 46.4 °F 67% 30.33 in - South 5.8 mph - N/A   Clear
12:00 PM 57.2 °F - 46.4 °F 67% 30.33 in - South 6.9 mph - N/A   Clear
12:30 PM 57.2 °F - 48.2 °F 72% 30.33 in 6.2 mi South 6.9 mph - N/A   Partly Cloudy
1:00 PM 56 °F - 48 °F 67% 30.33 in 25 mi South 8.9 mph - -   Scattered Clouds
1:00 PM 57.2 °F - 48.2 °F 72% 30.30 in 6.2 mi South 8.1 mph - N/A   Partly Cloudy
1:30 PM 55.4 °F - 48.2 °F 77% 30.30 in 6.2 mi South 8.1 mph - N/A   Partly Cloudy
2:00 PM 55.4 °F - 48.2 °F 77% 30.30 in 6.2 mi South 6.9 mph - N/A   Partly Cloudy
2:30 PM 55.4 °F - 48.2 °F 77% 30.30 in 6.2 mi South 6.9 mph - N/A   Partly Cloudy
3:00 PM 55.4 °F - 48.2 °F 77% 30.30 in 6.2 mi SSE 6.9 mph - N/A   Partly Cloudy
3:30 PM 53.6 °F - 48.2 °F 82% 30.30 in 6.2 mi SSE 6.9 mph - N/A   Scattered Clouds
4:00 PM 54 °F - 48 °F 74% 30.31 in 22 mi SSE 6.7 mph - -   Mostly Cloudy
4:00 PM 53.6 °F - 48.2 °F 82% 30.30 in 6.2 mi SSE 5.8 mph - N/A   Mostly Cloudy
4:30 PM 53.6 °F - 48.2 °F 82% 30.30 in 6.2 mi ESE 3.5 mph - N/A   Scattered Clouds
5:00 PM 51.8 °F - 50.0 °F 94% 30.30 in 6.2 mi ESE 2.3 mph - N/A   Scattered Clouds
5:30 PM 50.0 °F - 50.0 °F 100% 30.30 in 6.2 mi East 4.6 mph - N/A   Scattered Clouds
6:00 PM 50.0 °F - 50.0 °F 100% 30.30 in 6.2 mi NE 4.6 mph - N/A   Mostly Cloudy
6:30 PM 50.0 °F - 50.0 °F 100% 30.30 in 6.2 mi Variable 2.3 mph - N/A   Mostly Cloudy
7:00 PM 50.0 °F - 50.0 °F 100% 30.30 in 6.2 mi Variable 2.3 mph - N/A   Mostly Cloudy
7:30 PM 51.8 °F - 50.0 °F 94% 30.30 in 6.2 mi ENE 4.6 mph - N/A   Mostly Cloudy
8:00 PM 50.0 °F - 50.0 °F 100% 30.30 in 6.2 mi ENE 5.8 mph - N/A   Mostly Cloudy
8:30 PM 50.0 °F - 48.2 °F 94% 30.30 in 6.2 mi ENE 5.8 mph - N/A   Mostly Cloudy
9:00 PM 48.2 °F - 48.2 °F 100% 30.30 in 6.2 mi East 8.1 mph - N/A   Mostly Cloudy
9:30 PM 48.2 °F - 48.2 °F 100% 30.30 in 6.2 mi East 6.9 mph - N/A   Mostly Cloudy
10:00 PM 47 °F - 46 °F 97% 30.30 in 9 mi East 6.7 mph - -   Partly Cloudy
10:00 PM 46.4 °F 42.9 °F 46.4 °F 100% 30.27 in 6.2 mi East 6.9 mph - N/A   Scattered Clouds
10:30 PM 46.4 °F 42.9 °F 46.4 °F 100% 30.27 in 6.2 mi East 6.9 mph - N/A   Partly Cloudy
11:00 PM 48.2 °F - 48.2 °F 100% 30.27 in 6.2 mi East 5.8 mph - N/A   Mostly Cloudy
11:30 PM 46.4 °F 43.5 °F 46.4 °F 100% 30.27 in 6.2 mi East 5.8 mph - N/A   Scattered Clouds